Left ArrowRight Arrow

31.31129, -92.44514

Hourly Observations for October 26, 2022

Temp ( °F °C ) Dew Point ( °F °C ) Humidity (%) Winds ( mph kmh ) Pressure ( in mb ) Visibility ( mi km ) Precip ( " mm )
12:53 am 00:53 Clear 50 10 46 7.8 86 86 Calm 30.01 1016 10 16 0.00 0.00
1:53 am 01:53 Clear 48 8.9 46 7.8 93 93 N 5 7 30.01 1016 10 16 0.00 0.00
2:53 am 02:53 Clear 48 8.9 44 6.7 86 86 NNW 3 6 30.01 1016 10 16 0.00 0.00
3:53 am 03:53 Clear 48 8.9 45 7.2 89 89 Calm 30.01 1016 10 16 0.00 0.00
4:53 am 04:53 Clear 47 8.3 44 6.7 90 90 Calm 30.01 1016 9 14 0.00 0.00
5:53 am 05:53 Clear 45 7.2 43 6.1 93 93 NNW 3 6 30.03 1017 10 16 0.00 0.00
6:53 am 06:53 Clear with Mist and Fog 43 6.1 40 4.4 89 89 Calm 30.05 1018 2 3 0.00 0.00
7:01 am 07:01 Clear with Mist and Fog 43 6.1 40 4.4 89 89 Calm 30.04 1017 4 6 0.00 0.00
7:22 am 07:22 Sunny with Mist and Fog 43 6.1 41 5 93 93 Calm 30.04 1017 2 3 0.00 0.00
7:35 am 07:35 Sunny with Mist and Fog 42 5.6 40 4.4 92 92 NW 3 6 30.04 1017 4 6 0.00 0.00
7:53 am 07:53 Sunny 44 6.7 41 5 89 89 WNW 3 6 30.06 1018 10 16 0.00 0.00
8:53 am 08:53 Sunny 51 10.6 47 8.3 86 86 Calm 30.09 1019 10 16 0.00 0.00
9:53 am 09:53 Sunny 59 15 47 8.3 64 64 NNW 3 6 30.10 1019 10 16 0.00 0.00
10:53 am 10:53 Sunny 65 18.3 43 6.1 45 45 N 7 11 30.11 1020 10 16 0.00 0.00
11:53 am 11:53 Sunny 68 20 40 4.4 36 36 VRB 5 7 30.09 1019 10 16 0.00 0.00
12:53 pm 12:53 Sunny 70 21.1 37 2.8 30 30 VRB 7 11 30.07 1018 10 16 0.00 0.00
1:53 pm 13:53 Sunny 72 22.2 37 2.8 28 28 Calm 30.04 1017 10 16 0.00 0.00
2:53 pm 14:53 Sunny 74 23.3 36 2.2 25 25 NNW 5 7 30.01 1016 10 16 0.00 0.00
3:53 pm 15:53 Sunny 75 23.9 37 2.8 25 25 NNW 5 7 30.00 1016 10 16 0.00 0.00
4:53 pm 16:53 Sunny 75 23.9 37 2.8 25 25 N 7 11 30.00 1016 10 16 0.00 0.00
5:53 pm 17:53 Sunny 71 21.7 38 3.3 30 30 NNE 5 7 29.99 1016 10 16 0.00 0.00
6:53 pm 18:53 Clear 62 16.7 44 6.7 52 52 NNE 3 6 29.99 1016 10 16 0.00 0.00
7:53 pm 19:53 Clear 59 15 43 6.1 55 55 NNE 5 7 30.01 1016 10 16 0.00 0.00
8:53 pm 20:53 Clear 56 13.3 44 6.7 64 64 NNE 5 7 30.02 1017 10 16 0.00 0.00
9:53 pm 21:53 Clear 52 11.1 41 5 66 66 Calm 30.02 1017 10 16 0.00 0.00
10:53 pm 22:53 Clear 50 10 40 4.4 68 68 WNW 3 6 30.04 1017 10 16 0.00 0.00
11:53 pm 23:53 Clear 48 8.9 40 4.4 73 73 WNW 3 6 30.04 1017 10 16 0.00 0.00

Powered by Vaisala Xweather